EW1011 Weather Reports


time (UTC)temp
F
wind
direction
speed
knots
gust
knots
rain 1hr
in
rain 24hr
in
rain mn
in
humidity
%
barometer
mb
20260505034554 62 345 0.0 0.0 0.00 0.00 0.00 66 1009.3
20260505033057 63 345 0.0 1.7 0.00 0.00 0.00 64 1009.3
20260505031600 62 317 0.0 0.9 0.00 0.00 0.00 66 1009.3
20260505030059 62 313 0.0 0.0 0.00 0.00 0.00 66 1009.3
20260505024554 63 313 0.0 1.7 0.00 0.00 0.00 64 1009.3
20260505023055 63 351 0.0 2.6 0.00 0.00 0.00 62 1009.3
20260505021552 63 94 0.0 0.0 0.00 0.00 0.00 60 1009.3
20260505020052 62 94 0.0 0.9 0.00 0.00 0.00 62 1009.3
20260505014603 61 94 0.0 0.0 0.00 0.00 0.00 66 1008.8
20260505013050 62 94 0.0 0.0 0.00 0.00 0.00 64 1009.2
20260505011552 63 94 0.0 0.0 0.00 0.00 0.00 62 1009.0
20260505010049 63 94 0.0 0.0 0.00 0.00 0.00 62 1008.8
20260505004551 64 94 0.0 0.0 0.00 0.00 0.00 61 1008.7
20260505003046 65 94 0.0 0.0 0.00 0.00 0.00 59 1008.8
20260505001546 66 94 0.0 3.5 0.00 0.00 0.00 56 1008.5
20260505000052 67 100 0.0 1.7 0.00 0.00 0.00 53 1008.6
20260504234544 68 101 0.0 2.6 0.00 0.00 0.00 49 1008.7
20260504233043 69 141 0.0 1.7 0.00 0.00 0.00 46 1008.7
20260504231541 70 105 0.9 5.2 0.00 0.00 0.00 44 1008.6
20260504230046 70 280 0.0 7.0 0.00 0.00 0.00 44 1008.6
20260504224546 71 237 0.9 7.0 0.00 0.00 0.00 42 1008.6
20260504223040 72 108 0.0 6.1 0.00 0.00 0.00 41 1008.6
20260504221540 73 79 0.9 5.2 0.00 0.00 0.00 39 1008.6
20260504220038 73 113 0.9 6.1 0.00 0.00 0.00 38 1008.4
20260504214542 74 7 0.0 4.3 0.00 0.00 0.00 37 1008.5
20260504213038 74 72 0.0 8.7 0.00 0.00 0.00 36 1008.5
20260504211536 74 106 0.9 4.3 0.00 0.00 0.00 35 1008.7
20260504210050 74 260 0.0 7.0 0.00 0.00 0.00 35 1008.5
20260504204552 76 175 0.0 4.3 0.00 0.00 0.00 37 1008.7
20260504203036 76 97 0.0 3.5 0.00 0.00 0.00 34 1008.7
20260504201532 76 221 0.0 2.6 0.00 0.00 0.00 35 1008.8
20260504200032 76 125 0.0 4.3 0.00 0.00 0.00 35 1008.9
20260504194530 77 142 0.0 1.7 0.00 0.00 0.00 34 1009.2
20260504193030 76 106 0.0 4.3 0.00 0.00 0.00 34 1009.4
20260504191531 77 146 0.0 4.3 0.00 0.00 0.00 33 1009.8
20260504190026 77 107 0.9 7.0 0.00 0.00 0.00 33 1009.9
20260504184527 76 200 0.0 7.8 0.00 0.00 0.00 35 1010.2
20260504183025 76 80 1.7 6.1 0.00 0.00 0.00 31 1010.4
20260504181523 77 106 0.9 5.2 0.00 0.00 0.00 30 1010.4
20260504180022 75 123 0.0 4.3 0.00 0.00 0.00 31 1010.6
20260504174521 74 162 0.9 5.2 0.00 0.00 0.00 30 1010.8
20260504173020 74 258 1.7 6.1 0.00 0.00 0.00 31 1010.9
20260504171518 73 264 0.0 4.3 0.00 0.00 0.00 33 1011.1
20260504081509 49 260 0.0 0.0 0.00 0.00 0.00 68 1014.0
20260504044550 44 260 0.0 0.0 0.00 0.00 0.00 75 1014.5
20260504043054 44 260 0.0 0.0 0.00 0.00 0.00 75 1014.4
20260504041546 44 260 0.0 0.0 0.00 0.00 0.00 75 1014.4
20260504040045 45 260 0.0 0.0 0.00 0.00 0.00 73 1014.2